Fredericksburg, VA

10:37 PM EDT on June 27, 2017 (GMT -0400)
Shannon

Weather History for KEZF - October, 2013

Change the Weather History Date:

Tuesday, October 1, 2013

  Actual Average (KNYG) Record (KNYG)
Temperature  
Mean Temperature 68 °F -  
Max Temperature 83 °F 70 °F 82 °F (1998)
Min Temperature 54 °F 52 °F 46 °F (1997)
Cooling Degree Days 4    
Growing Degree Days 18 (Base 50)    
Moisture  
Dew Point 59 °F    
Average Humidity 80    
Maximum Humidity 100    
Minimum Humidity 41    
Precipitation  
Precipitation 0.00 in - - ()
Sea Level Pressure  
Sea Level Pressure 30.03 in    
Wind  
Wind Speed 1 mph (West)    
Max Wind Speed 7 mph    
Max Gust Speed -    
Visibility 10 miles    
Events      
Averages and records for this station are not official NWS values.
T = Trace of Precipitation, MM = Missing Value Source: NWS Daily Summary

Daily Weather History Graph

Daily Weather History Graph

Search for Another Location

Airport or City:

Trip Planner

Search our weather history database for the weather conditions in past years. The results will help you decide how hot, cold, wet, or windy it might be!

Date:

Astronomy

Oct. 01, 2013 Rise Set
Actual Time 7:05 AM EDT 6:52 PM EDT
Civil Twilight 6:39 AM EDT 7:18 PM EDT
Nautical Twilight 6:08 AM EDT 7:49 PM EDT
Astronomical Twilight 5:37 AM EDT 8:20 PM EDT
Moon 3:40 AM EDT (10/1) 4:52 PM EDT (10/1)
Length of Visible Light 12h 39m
Length of Day
11h 46m
Waning Crescent, 12% of the Moon is Illuminated
Oct 1
Waning Crescent
Oct 4
New
Oct 11
First Quarter
Oct 18
Full
Oct 26
Last Quarter

Hourly Weather History & Observations

Time (EDT) Temp. Heat Index Dew Point Humidity Pressure Visibility Wind Dir Wind Speed Gust Speed Precip Events Conditions
12:15 AM 56.7 °F - 56.1 °F 98% 30.04 in 10.0 mi Calm Calm - N/A   Clear
12:35 AM 56.8 °F - 56.3 °F 98% 30.04 in 10.0 mi Calm Calm - N/A   Clear
12:55 AM 56.5 °F - 56.3 °F 99% 30.04 in 10.0 mi WSW 3.5 mph - N/A   Clear
1:15 AM 57.2 °F - 56.5 °F 97% 30.04 in 10.0 mi Calm Calm - N/A   Clear
1:35 AM 57.2 °F - 56.3 °F 97% 30.04 in 10.0 mi Calm Calm - N/A   Clear
1:55 AM 57.0 °F - 56.7 °F 99% 30.04 in 10.0 mi Calm Calm - N/A   Clear
2:15 AM 56.1 °F - 55.8 °F 99% 30.04 in 10.0 mi Calm Calm - N/A   Clear
2:35 AM 54.5 °F - 54.3 °F 99% 30.04 in 10.0 mi Calm Calm - N/A   Clear
2:55 AM 55.0 °F - 55.0 °F 100% 30.04 in 10.0 mi Calm Calm - N/A   Clear
3:15 AM 55.0 °F - 55.0 °F 100% 30.04 in 10.0 mi Calm Calm - N/A   Clear
3:35 AM 55.0 °F - 55.0 °F 100% 30.04 in 10.0 mi Calm Calm - N/A   Clear
3:55 AM 55.0 °F - 55.0 °F 100% 30.03 in 10.0 mi Calm Calm - N/A   Clear
4:15 AM 55.0 °F - 55.0 °F 100% 30.03 in 10.0 mi Calm Calm - N/A   Clear
4:35 AM 54.5 °F - 54.5 °F 100% 30.03 in 10.0 mi Calm Calm - N/A   Clear
4:55 AM 54.7 °F - 54.7 °F 100% 30.04 in 10.0 mi Calm Calm - N/A   Clear
5:15 AM 54.5 °F - 54.5 °F 100% 30.04 in 10.0 mi Calm Calm - N/A   Mostly Cloudy
5:35 AM 54.1 °F - 54.1 °F 100% 30.04 in 10.0 mi Calm Calm - N/A   Overcast
5:55 AM 55.2 °F - 55.2 °F 100% 30.05 in 10.0 mi Calm Calm - N/A   Overcast
6:15 AM 55.9 °F - 55.9 °F 100% 30.05 in 10.0 mi Calm Calm - N/A   Overcast
6:35 AM 55.8 °F - 55.8 °F 100% 30.06 in 10.0 mi Calm Calm - N/A   Overcast
6:55 AM 56.3 °F - 56.3 °F 100% 30.06 in 10.0 mi Calm Calm - N/A   Overcast
7:15 AM 56.8 °F - 56.5 °F 99% 30.06 in 10.0 mi Calm Calm - N/A   Overcast
7:35 AM 56.8 °F - 56.5 °F 99% 30.06 in 10.0 mi Calm Calm - N/A   Overcast
7:55 AM 57.2 °F - 57.2 °F 100% 30.06 in 10.0 mi Calm Calm - N/A   Overcast
8:15 AM 57.7 °F - 57.4 °F 99% 30.07 in 10.0 mi Calm Calm - N/A   Mostly Cloudy
8:35 AM 59.0 °F - 57.6 °F 95% 30.07 in 10.0 mi Calm Calm - N/A   Mostly Cloudy
8:55 AM 59.9 °F - 58.1 °F 94% 30.08 in 10.0 mi Calm Calm - N/A   Mostly Cloudy
9:15 AM 61.2 °F - 59.0 °F 93% 30.09 in 10.0 mi Calm Calm - N/A   Overcast
9:35 AM 62.1 °F - 59.2 °F 90% 30.08 in 10.0 mi Calm Calm - N/A   Mostly Cloudy
9:55 AM 63.1 °F - 59.9 °F 89% 30.09 in 10.0 mi Calm Calm - N/A   Scattered Clouds
10:15 AM 65.3 °F - 60.1 °F 83% 30.09 in 10.0 mi Calm Calm - N/A   Scattered Clouds
10:35 AM 66.7 °F - 60.6 °F 81% 30.09 in 10.0 mi Calm Calm - N/A   Mostly Cloudy
10:55 AM 68.5 °F - 61.7 °F 79% 30.08 in 10.0 mi Calm Calm - N/A   Overcast
11:15 AM 70.0 °F - 59.7 °F 70% 30.08 in 10.0 mi Calm Calm - N/A   Mostly Cloudy
11:35 AM 73.6 °F - 60.4 °F 63% 30.08 in 10.0 mi Calm Calm - N/A   Scattered Clouds
11:55 AM 75.4 °F - 60.1 °F 59% 30.07 in 10.0 mi Calm Calm - N/A   Scattered Clouds
12:15 PM 77.2 °F - 59.5 °F 54% 30.06 in 10.0 mi Calm Calm - N/A   Clear
12:35 PM 79.3 °F - 59.5 °F 51% 30.06 in 10.0 mi NNE 5.8 mph - N/A   Clear
12:55 PM 79.3 °F - 59.4 °F 50% 30.05 in 10.0 mi NE 3.5 mph - N/A   Clear
1:15 PM 79.7 °F - 59.0 °F 49% 30.04 in 10.0 mi Calm Calm - N/A   Clear
1:35 PM 81.5 °F 81.8 °F 59.5 °F 47% 30.03 in 10.0 mi SE 4.6 mph - N/A   Clear
1:55 PM 82.0 °F 82.2 °F 59.5 °F 46% 30.02 in 10.0 mi Calm Calm - N/A   Clear
2:15 PM 79.7 °F - 58.3 °F 48% 30.01 in 10.0 mi Calm Calm - N/A   Scattered Clouds
2:35 PM 83.3 °F 83.4 °F 59.7 °F 45% 30.01 in 10.0 mi SE 3.5 mph - N/A   Mostly Cloudy
2:55 PM 82.9 °F 82.8 °F 58.6 °F 44% 30.00 in 10.0 mi Calm Calm - N/A   Mostly Cloudy
3:15 PM 82.2 °F 82.0 °F 57.6 °F 43% 30.00 in 10.0 mi WNW 6.9 mph - N/A   Mostly Cloudy
3:35 PM 82.4 °F 81.9 °F 56.7 °F 41% 30.00 in 10.0 mi West 6.9 mph - N/A   Scattered Clouds
3:55 PM 81.3 °F 81.3 °F 57.4 °F 44% 29.99 in 10.0 mi WNW 5.8 mph - N/A   Mostly Cloudy
4:15 PM 82.0 °F 81.8 °F 57.4 °F 43% 29.99 in 10.0 mi NNW 5.8 mph - N/A   Mostly Cloudy
4:35 PM 81.0 °F 81.0 °F 57.4 °F 44% 29.99 in 10.0 mi NNW 5.8 mph - N/A   Mostly Cloudy
4:55 PM 82.2 °F 81.9 °F 57.0 °F 42% 29.99 in 10.0 mi Calm Calm - N/A   Mostly Cloudy
5:15 PM 82.2 °F 81.9 °F 57.2 °F 42% 29.99 in 10.0 mi NW 3.5 mph - N/A   Scattered Clouds
5:35 PM 81.1 °F 81.2 °F 57.6 °F 44% 29.99 in 10.0 mi SW 5.8 mph - N/A   Scattered Clouds
5:55 PM 80.4 °F 80.9 °F 58.6 °F 47% 29.99 in 10.0 mi SW 3.5 mph - N/A   Scattered Clouds
6:15 PM 77.7 °F - 61.5 °F 57% 29.99 in 10.0 mi Calm Calm - N/A   Clear
6:35 PM 74.5 °F - 63.0 °F 67% 29.99 in 10.0 mi SSW 3.5 mph - N/A   Scattered Clouds
6:55 PM 73.0 °F - 62.6 °F 70% 29.99 in 10.0 mi SW 4.6 mph - N/A   Scattered Clouds
7:15 PM 71.1 °F - 62.1 °F 73% 29.99 in 10.0 mi SSW 4.6 mph - N/A   Clear
7:35 PM 69.4 °F - 62.1 °F 77% 30.00 in 10.0 mi SW 3.5 mph - N/A   Clear
7:55 PM 69.3 °F - 61.9 °F 77% 30.00 in 10.0 mi Calm Calm - N/A   Clear
8:15 PM 67.5 °F - 61.7 °F 82% 30.01 in 10.0 mi Calm Calm - N/A   Clear
8:35 PM 66.9 °F - 61.7 °F 83% 30.01 in 10.0 mi Calm Calm - N/A   Clear
8:55 PM 66.2 °F - 60.8 °F 83% 30.01 in 10.0 mi Calm Calm - N/A   Clear
9:15 PM 65.3 °F - 61.0 °F 86% 30.01 in 10.0 mi Calm Calm - N/A   Clear
9:35 PM 65.3 °F - 61.0 °F 86% 30.02 in 10.0 mi Calm Calm - N/A   Clear
9:55 PM 64.2 °F - 62.8 °F 95% 30.02 in 10.0 mi Calm Calm - N/A   Clear
10:15 PM 63.7 °F - 62.6 °F 96% 30.03 in 10.0 mi Calm Calm - N/A   Clear
10:35 PM 63.1 °F - 62.2 °F 97% 30.03 in 10.0 mi Calm Calm - N/A   Clear
10:55 PM 62.8 °F - 62.6 °F 99% 30.03 in 10.0 mi Calm Calm - N/A   Clear
11:15 PM 62.6 °F - 62.4 °F 99% 30.03 in 10.0 mi Calm Calm - N/A   Clear
11:35 PM 61.9 °F - 61.2 °F 97% 30.04 in 10.0 mi Calm Calm - N/A   Clear
11:55 PM 61.0 °F - 60.8 °F 99% 30.04 in 10.0 mi Calm Calm - N/A   Clear